Date,TemperatureHighF,TemperatureAvgF,TemperatureLowF,DewpointHighF,DewpointAvgF,DewpointLowF,HumidityHigh,HumidityAvg,HumidityLow,PressureMaxIn,PressureMinIn,WindSpeedMaxMPH,WindSpeedAvgMPH,GustSpeedMaxMPH,PrecipitationSumIn
2013-6-12,92,81,71,70,66,59,94,62,34,0.00,40.00,0,-999,0,0.00
2013-6-13,93,81,70,68,65,57,93,61,34,0.00,40.00,0,-999,0,0.00
2013-6-14,88,77,68,69,65,60,87,66,43,0.00,40.00,0,-999,0,0.00
2013-6-15,87,80,74,70,66,61,81,64,47,0.00,40.00,0,-999,0,0.00
2013-6-16,94,82,73,69,64,60,81,57,34,0.00,40.00,0,-999,0,0.00
2013-6-17,95,83,74,69,64,-100,82,57,33,0.00,40.00,0,-999,0,0.00
2013-6-18,88,77,69,64,61,55,80,60,38,0.00,40.00,0,-999,0,0.02
2013-6-19,94,80,70,69,63,-100,85,62,32,0.00,40.00,0,-999,0,0.00
2013-6-20,93,80,73,66,64,61,80,61,35,0.00,40.00,0,-999,0,0.00
2013-6-22,90,85,80,65,62,59,61,47,37,0.00,40.00,0,-999,0,0.00
2013-8-18,91,81,71,55,53,51,54,40,26,0.00,40.00,0,-999,0,0.00
2013-8-19,93,83,72,59,42,-100,51,39,27,0.00,40.00,0,-999,0,0.00
2013-8-20,92,82,71,60,54,48,67,40,23,0.00,40.00,0,-999,0,0.00
2013-8-21,92,80,69,66,62,55,86,57,33,0.00,40.00,0,-999,0,0.00
2013-8-22,95,84,72,67,62,57,77,50,29,0.00,40.00,0,-999,0,0.00
2013-8-23,94,83,71,68,62,56,82,52,29,0.00,40.00,0,-999,0,0.00
2013-8-24,97,86,71,66,60,56,69,45,26,0.00,40.00,0,-999,0,0.00
2013-8-25,93,84,74,66,62,56,75,49,30,0.00,40.00,0,-999,0,0.00
2013-8-26,90,81,72,67,64,59,82,58,36,0.00,40.00,0,-999,0,0.00
2013-8-27,78,73,70,70,67,65,92,81,66,0.00,40.00,0,-999,0,0.26
2013-9-3,96,82,70,67,63,57,88,57,28,0.00,40.00,0,-999,0,0.01
2013-9-4,97,84,70,64,59,55,71,46,25,0.00,40.00,0,-999,0,0.00
2013-9-5,91,81,72,68,65,63,80,60,42,0.00,40.00,0,-999,0,0.05
2013-9-6,96,83,69,68,61,52,91,53,23,0.00,40.00,0,-999,0,0.05
2013-9-7,95,83,70,67,61,54,84,51,26,0.00,40.00,0,-999,0,0.00
2013-9-8,92,79,67,69,64,57,98,64,31,0.00,40.00,0,-999,0,0.00
2013-9-9,90,78,69,67,64,57,91,65,33,0.00,40.00,0,-999,0,0.01
2013-9-10,89,77,69,69,66,61,98,71,41,0.00,40.00,0,-999,0,0.01
2013-9-11,91,79,70,69,61,54,90,59,30,0.00,40.00,0,-999,0,0.00
2013-9-12,92,80,66,64,59,54,86,52,29,0.00,40.00,0,-999,0,0.00
2013-9-13,94,81,68,62,57,53,75,47,25,0.00,40.00,0,-999,0,0.00
2013-9-14,95,83,69,62,58,55,70,44,28,0.00,40.00,0,-999,0,0.00
2013-9-15,90,81,72,66,62,58,80,55,36,0.00,40.00,0,-999,0,0.00
2013-9-16,91,82,74,68,50,-100,73,50,21,0.00,40.00,0,-999,0,0.00
2013-9-17,87,79,72,68,65,62,86,65,45,0.00,40.00,0,-999,0,0.00
2013-10-21,69,60,53,56,50,46,88,71,57,0.00,40.00,0,-999,0,0.00
2013-10-22,73,58,44,48,23,-100,86,55,22,0.00,40.00,0,-999,0,0.00
2013-10-23,79,61,47,47,40,36,73,50,22,0.00,40.00,0,-999,0,0.00
2013-10-24,78,63,46,44,38,-100,80,48,25,0.00,40.00,0,-999,0,0.00
2013-10-25,72,62,50,54,50,44,86,65,48,0.00,40.00,0,-999,0,0.00
2013-10-26,75,66,59,63,59,54,91,80,59,0.00,40.00,0,-999,0,0.28
2013-10-27,67,60,56,61,57,55,100,89,66,0.00,40.00,0,-999,0,0.57
2013-10-28,76,69,58,65,63,56,100,82,63,0.00,40.00,0,-999,0,0.00
2013-11-14,59,47,32,39,28,22,68,49,29,0.00,40.00,0,-999,0,0.00
2013-11-15,51,47,42,44,39,37,88,74,65,0.00,40.00,0,-999,0,0.00
2013-11-16,76,67,57,64,59,54,94,75,52,0.00,40.00,0,-999,0,0.00
2013-11-17,84,70,57,65,53,38,99,64,20,0.00,40.00,0,-999,0,0.00
2013-11-18,71,62,55,43,37,29,50,40,33,0.00,40.00,0,-999,0,0.00
2013-11-19,68,58,50,42,38,35,66,48,34,0.00,40.00,0,-999,0,0.00
2013-11-20,68,61,55,60,54,42,86,77,63,0.00,40.00,0,-999,0,0.00
2013-11-24,34,32,30,28,25,23,89,76,66,0.00,40.00,0,-999,0,0.15
2013-11-25,36,34,31,32,31,29,93,88,83,0.00,40.00,0,-999,0,0.71
2013-11-26,49,38,32,31,27,21,92,69,39,0.00,40.00,0,-999,0,0.02
2013-11-27,47,36,26,25,18,12,76,51,25,0.00,40.00,0,-999,0,0.00
2013-11-28,54,42,27,26,22,18,77,49,28,0.00,40.00,0,-999,0,0.00
2013-11-29,58,45,31,44,33,21,84,63,47,0.00,40.00,0,-999,0,0.00
2013-11-30,63,54,46,51,48,43,94,80,60,0.00,40.00,0,-999,0,0.00
2013-12-1,63,54,47,55,51,47,100,92,71,0.00,40.00,0,-999,0,0.00
2013-12-2,50,48,44,36,34,33,70,59,52,0.00,40.00,0,-999,0,0.00
2013-12-3,79,58,43,36,33,27,69,43,15,0.00,40.00,0,-999,0,0.00
2013-12-4,81,64,50,60,24,-100,81,49,32,0.00,40.00,0,-999,0,0.00
2013-12-5,51,32,25,39,22,14,92,66,50,0.00,40.00,0,-999,0,0.00
2013-12-6,29,24,20,27,19,14,94,83,74,0.00,40.00,0,-999,0,0.00
2013-12-7,22,20,17,15,12,9,78,73,69,0.00,40.00,0,-999,0,0.00
2013-12-8,40,29,21,33,25,16,95,84,69,0.00,40.00,0,-999,0,0.21
2013-12-9,33,29,26,32,28,23,99,97,91,0.00,40.00,0,-999,0,0.01
2013-12-10,41,27,15,23,18,12,91,71,40,0.00,40.00,0,-999,0,0.30
2013-12-11,49,37,29,26,22,18,73,57,39,0.00,40.00,0,-999,0,0.41
2013-12-12,47,43,41,32,30,29,71,61,51,0.00,40.00,0,-999,0,0.00
2013-12-13,43,42,39,35,32,30,73,69,66,0.00,40.00,0,-999,0,0.00
2013-12-14,47,39,28,42,31,23,99,73,46,0.00,40.00,0,-999,0,0.00
2013-12-15,58,40,23,29,25,20,90,60,27,0.00,40.00,0,-999,0,0.00
2013-12-16,65,46,31,32,28,24,75,51,27,0.00,40.00,0,-999,0,0.00
2013-12-25,56,42,34,37,32,22,98,67,39,0.00,40.00,0,-999,0,0.00
2013-12-26,53,39,28,31,26,21,96,65,29,0.00,40.00,0,-999,0,0.00
2013-12-27,56,42,31,32,17,-100,88,58,23,0.00,40.00,0,-999,0,0.00
2013-12-28,57,48,36,45,39,29,89,72,55,0.00,40.00,0,-999,0,0.00
2013-12-29,50,40,26,44,36,22,94,86,74,0.00,40.00,0,-999,0,0.00
2013-12-30,47,32,23,24,20,16,84,63,36,0.00,40.00,0,-999,0,0.00
2013-12-31,56,41,25,29,26,21,86,57,34,0.00,40.00,0,-999,0,0.00
2014-1-1,40,40,40,29,29,29,64,64,64,0.00,40.00,0,-999,0,0.00
2014-1-2,44,37,29,19,18,16,60,47,34,0.00,40.00,0,-999,0,0.00